CPA288 EDDF-VHHH

Flight info

Callsign CPA288
Flight time N/A
Altitude 31000
Route SULUS7S/18 SULUS Z650 VEMUT/N0489F330 DCT PEPIK DCT NORAH DCT BUDOP DCT LUGEB DCT UDROS UM859 KARDE UL851 TBN UM11 REBLO M11 EDATA/N0488F350 M11 LUSAL N199 RASAM L88 METKA B476 DARVA/K0904F350 T898 OGOLI N193 SR L163 TISIB L141 KAMUD/K0900S1070 W186 SADAN Y1 SUNPU/K0898S1130 Y1 OMBON W245 OVRAL B330 KWE W181 DUDIT A599 POU R473 SIERA
Aircraft B77W/H-SDE1E2E3FGHIJ2J3J4J5M1RWXY/LB1D1

Departure

Time 2026-05-07 10:32
Airport Frankfurt Main Airport (EDDF)

Arrival

Time N/A
Airport Hong Kong International Airport (VHHH)
Time Latitude Longitude Altitude Speed Heading
2026-05-07 10:09 50.04543 8.56744 370 ft 0 kts 294°
2026-05-07 10:20 50.04543 8.56745 370 ft 0 kts 294°
2026-05-07 10:21 50.04541 8.56751 369 ft 2 kts 292°
2026-05-07 10:21 50.04535 8.56775 369 ft 2 kts 289°
2026-05-07 10:21 50.04530 8.56800 367 ft 2 kts 282°
2026-05-07 10:21 50.04528 8.56825 371 ft 2 kts 272°
2026-05-07 10:22 50.04529 8.56850 367 ft 2 kts 255°
2026-05-07 10:22 50.04536 8.56874 369 ft 2 kts 223°
2026-05-07 10:22 50.04549 8.56890 370 ft 2 kts 204°
2026-05-07 10:22 50.04557 8.56895 368 ft 0 kts 197°
2026-05-07 10:24 50.04555 8.56894 367 ft 2 kts 197°
2026-05-07 10:24 50.04528 8.56882 367 ft 4 kts 195°
2026-05-07 10:24 50.04496 8.56868 368 ft 7 kts 198°
2026-05-07 10:25 50.04443 8.56785 374 ft 13 kts 242°
2026-05-07 10:25 50.04410 8.56657 372 ft 13 kts 249°
2026-05-07 10:25 50.04379 8.56527 371 ft 13 kts 250°
2026-05-07 10:25 50.04349 8.56397 369 ft 13 kts 250°
2026-05-07 10:26 50.04318 8.56269 370 ft 13 kts 249°
2026-05-07 10:26 50.04286 8.56138 371 ft 13 kts 249°
2026-05-07 10:26 50.04255 8.56008 372 ft 13 kts 249°
2026-05-07 10:26 50.04224 8.55874 372 ft 14 kts 250°
2026-05-07 10:27 50.04189 8.55728 370 ft 15 kts 249°
2026-05-07 10:27 50.04153 8.55578 372 ft 15 kts 250°
2026-05-07 10:27 50.04117 8.55425 370 ft 15 kts 250°
2026-05-07 10:27 50.04081 8.55277 372 ft 15 kts 249°
2026-05-07 10:28 50.04045 8.55128 368 ft 15 kts 249°
2026-05-07 10:28 50.04006 8.54962 371 ft 20 kts 249°
2026-05-07 10:28 50.03958 8.54764 370 ft 20 kts 250°
2026-05-07 10:28 50.03911 8.54565 367 ft 20 kts 250°
2026-05-07 10:29 50.03859 8.54374 373 ft 19 kts 240°
2026-05-07 10:29 50.03796 8.54200 372 ft 18 kts 248°
2026-05-07 10:29 50.03750 8.54010 372 ft 18 kts 250°
2026-05-07 10:30 50.03660 8.53630 367 ft 22 kts 250°
2026-05-07 10:30 50.03605 8.53417 371 ft 24 kts 249°
2026-05-07 10:30 50.03546 8.53167 371 ft 25 kts 250°
2026-05-07 10:30 50.03488 8.52920 369 ft 25 kts 250°
2026-05-07 10:31 50.03429 8.52701 372 ft 20 kts 247°
2026-05-07 10:31 50.03322 8.52595 370 ft 25 kts 179°
2026-05-07 10:31 50.03020 8.52600 370 ft 71 kts 179°
2026-05-07 10:31 50.02321 8.52603 375 ft 135 kts 180°
2026-05-07 10:32 50.01184 8.52610 371 ft 188 kts 181°
2026-05-07 10:32 49.99814 8.52557 776 ft 197 kts 181°
2026-05-07 10:32 49.98395 8.52542 1276 ft 205 kts 182°
2026-05-07 10:32 49.97008 8.52812 1786 ft 206 kts 154°
2026-05-07 10:33 49.95976 8.54359 2066 ft 211 kts 118°
2026-05-07 10:33 49.95254 8.56428 2279 ft 224 kts 118°
2026-05-07 10:33 49.94490 8.58570 2581 ft 236 kts 117°
2026-05-07 10:33 49.93981 8.61011 2800 ft 245 kts 92°
2026-05-07 10:34 49.93919 8.63696 3241 ft 251 kts 91°
2026-05-07 10:34 49.93827 8.66452 3722 ft 258 kts 91°
2026-05-07 10:34 49.93502 8.69190 4148 ft 267 kts 117°
2026-05-07 10:34 49.92255 8.71355 4635 ft 271 kts 146°
2026-05-07 10:35 49.90914 8.72764 4996 ft 277 kts 145°
2026-05-07 10:35 49.89337 8.74466 5629 ft 278 kts 144°
2026-05-07 10:35 49.87963 8.76496 6099 ft 279 kts 120°
2026-05-07 10:35 49.87040 8.79175 6521 ft 283 kts 116°
2026-05-07 10:36 49.86125 8.81839 7059 ft 287 kts 118°
2026-05-07 10:36 49.85169 8.84518 7656 ft 288 kts 118°
2026-05-07 10:36 49.84182 8.87250 8216 ft 291 kts 119°
2026-05-07 10:36 49.83180 8.90015 8751 ft 295 kts 119°
2026-05-07 10:37 49.82166 8.92808 9321 ft 299 kts 120°
2026-05-07 10:37 49.81144 8.95620 9864 ft 302 kts 120°
2026-05-07 10:37 49.80102 8.98483 10303 ft 309 kts 120°
2026-05-07 10:37 49.79015 9.01468 10467 ft 328 kts 120°